sat.trackr.live / text

‹ back to catalog

KANOPUS-V 4

NORAD 43181 · 2018-014B

PAYLOAD ACTIVE UNKNOWN

§ Identity

Operator
Country
CIS
Launch date
2018-02-01
Launch site
VOSTO
Launch vehicle
Mass (kg)
RCS (m²)

External: N2YO · Heavens-Above · Gunter

§ Orbital elements

Epoch: 2026-05-25T04:19:31.116864Z

Period
94.56 min
Inclination
97.3607°
Eccentricity
0.0002032
Mean motion
15.22844853 rev/d
Perigee alt
495.9 km
Apogee alt
498.7 km
Semi-major
6,875.4 km
B*
9.8213e-5
RAAN
51.3227°
Arg perigee
82.4073°
Mean anomaly
277.7394°
Rev number
46,123

§ Raw data

KANOPUS-V 41 43181U 18014B   26145.18022126  .00002229  00000+0  98213-4 0  99922 43181  97.3607  51.3227 0002032  82.4073 277.7394 15.22844853461239

JSON: /api/v1/satellites/43181 · /tle

For live sub-satellite position, see the globe view (requires WebGL).

§ Visibility from observer

Set your observer location to see the next 7 days of passes ≥ 10°. The values pass through the URL so the page stays shareable.

No JS? Fill the form by hand. The geolocation button needs JavaScript.